#timestamp,LO_Frequency,Hit,StdDev 
1620719195.8,286046928.5,P
1620719215.7,286046926.3,P
1620719235.5,286046928.7,P
1620719255.4,286046926.4,Y
1620719275.2,286046999.6,P
1620719295.0,286046999.1,N
1620719295.9,286046999.1,N
1620719315.8,286046997.7,N
1620719335.6,286046994.9,N
1620719355.4,286046995.7,N
1620719375.3,286046996.4,N
1620719395.1,286046993.3,N
1620719415.9,286046993.6,N
1620719435.7,286046992.1,N
1620719455.5,286046990.1,N
1620719475.4,286046992.9,N
1620719495.2,286046992.5,N
1620719515.0,286046990.2,N
1620719515.9,286046990.2,N
1620719535.8,286046990.6,N
1620719555.6,286046991.4,N
1620719575.5,286046991.5,N
1620719595.3,286046988.8,N
1620719615.1,286046989.2,N
1620719635.9,286046989.6,N
1620719655.7,286046990.0,N
1620719675.5,286046990.0,N
1620719695.4,286046987.3,N
1620719715.2,286046989.5,N
1620719735.0,286046987.0,N
1620719736.0,286046987.0,N
1620719755.8,286046989.7,N
1620719775.6,286046989.5,N
1620719795.5,286046990.0,N
1620719815.3,286046988.0,Y
1620719835.1,286046992.4,P
1620719855.9,286046990.6,P
1620719875.7,286046988.9,P
1620719895.6,286046989.3,Y
1620719915.4,286046996.9,P
1620719935.2,286046997.6,N
1620719955.1,286046997.5,N
1620719956.0,286046997.5,N
1620719975.8,286046995.1,N
1620719995.6,286046996.3,N
